Location: Clover
(42.5131°N, 114.6874°W)
Time: 17:25:17
(UTC+00:00)

Transit 4A - Visible Passes

Search period start: 19 January 2026 00:00
Search period end: 29 January 2026 00:00
Orbit: 867 x 974 km, 66.8° (Epoch: 19 January)

Date Brightness Start Highest point End Pass type
(mag) Time Alt. Az. Time Alt. Az. Time Alt. Az.
19 Jan 8.6 01:56:26 10° NNW 02:01:51 31° NE 02:04:16 24° E visible
19 Jan 8.6 03:42:28 10° NW 03:47:49 51° W 03:47:49 51° W visible
20 Jan 8.3 02:04:59 10° NNW 02:10:49 43° NE 02:14:14 23° ESE visible
20 Jan 9.2 03:51:29 10° NW 03:57:04 36° WSW 03:57:50 35° SW visible
21 Jan 7.9 02:13:37 10° NNW 02:19:42 60° NE 02:24:49 16° SE visible
21 Jan 9.8 04:00:43 10° NW 04:05:37 25° WSW 04:08:27 18° SW visible
22 Jan 7.8 02:22:19 10° NNW 02:28:32 83° ENE 02:34:51 10° SSE visible
22 Jan 10.4 04:10:23 10° WNW 04:14:06 17° WSW 04:17:52 10° SW visible
23 Jan 8.2 02:31:07 10° NW 02:37:16 70° WSW 02:43:32 10° SSE visible
23 Jan 10.8 04:21:45 10° W 04:22:32 10° W 04:23:19 10° WSW visible
24 Jan 8.9 02:40:03 10° NW 02:45:57 48° WSW 02:51:58 10° S visible
25 Jan 8.2 01:02:29 10° NNW 01:08:24 46° NE 01:14:26 10° SE visible
25 Jan 9.6 02:49:06 10° NW 02:54:34 33° WSW 03:00:06 10° S visible
26 Jan 8.0 01:11:08 10° NNW 01:17:17 65° ENE 01:23:32 10° SE visible
26 Jan 10.3 02:58:26 10° WNW 03:03:06 23° WSW 03:07:50 10° SSW visible
27 Jan 8.0 01:19:51 10° NNW 01:26:05 90° S 01:32:25 10° SSE visible
27 Jan 10.8 03:08:15 10° WNW 03:11:34 15° WSW 03:14:55 10° SW visible
28 Jan 8.5 01:28:41 10° NW 01:34:48 64° WSW 01:41:02 10° SSE visible
